Temp
-5 -7 -7 -8 -8 -9 -9 -9 -9 -9 -9 -10 -10 -10 -11 -11 -11 -11 -11 -10 -10 -9 -9 -9 -9 -10 -10 -10 -10 -10 -10 -10 -10 -9 -9 -9 -10 -9 -9 -9 -9 -9 -9
-8 -8 -8 -8 -8 -8 -9 -9 -9 -9 -9 -9 -10 -10 -10 -11 -11 -11 -11 -11 -10 -10 -11 -11 -10 -11 -11 -11 -11 -11 -11 -10 -10 -10 -10 -10 -10 -10 -10 -10 -9 -10 -9
-9 -9 -9 -9 -8 -8 -9 -9 -9 -9 -9 -10 -9 -10 -9 -10 -11 -11 -11 -11 -11 -11 -11 -11 -11 -11 -11 -11 -11 -11 -11 -11 -11 -11 -12 -11 -11 -12 -11 -10 -10 -10 -10
-9 -8 -8 -8 -9 -9 -9 -10 -10 -10 -10 -10 -10 -10 -10 -10 -11 -11 -12 -12 -12 -12 -11 -11 -11 -11 -11 -12 -11 -11 -11 -11 -11 -11 -11 -11 -11 -11 -11 -12 -11 -11 -10
-10 -9 -9 -9 -10 -10 -10 -10 -10 -10 -10 -10 -10 -10 -10 -10 -11 -12 -12 -12 -12 -12 -12 -12 -12 -12 -12 -12 -12 -12 -12 -12 -12 -12 -12 -11 -11 -11 -11 -11 -11 -11 -11
-11 -11 -10 -10 -10 -10 -10 -10 -10 -10 -10 -11 -11 -11 -11 -11 -12 -12 -12 -12 -12 -12 -12 -12 -13 -12 -12 -12 -12 -12 -12 -12 -12 -12 -12 -11 -11 -11 -11 -11 -11 -12 -12
-11 -11 -10 -10 -10 -10 -10 -10 -11 -11 -11 -11 -11 -11 -12 -12 -12 -12 -12 -12 -12 -12 -13 -13 -13 -13 -13 -13 -13 -13 -13 -13 -13 -13 -13 -13 -13 -12 -12 -12 -12 -12 -12
-10 -10 -10 -10 -10 -10 -10 -11 -11 -11 -11 -12 -12 -12 -12 -12 -12 -12 -12 -12 -12 -13 -13 -13 -13 -13 -13 -14 -13 -13 -13 -13 -13 -13 -14 -14 -13 -13 -13 -13 -13 -13 -13
-10 -10 -10 -10 -10 -10 -11 -11 -11 -12 -12 -12 -13 -12 -13 -13 -12 -12 -13 -13 -13 -13 -13 -13 -13 -14 -14 -14 -14 -14 -14 -14 -14 -14 -14 -14 -14 -14 -13 -13 -13 -13 -13
-10 -10 -11 -11 -11 -11 -11 -11 -11 -12 -12 -13 -13 -13 -12 -13 -13 -13 -13 -13 -13 -13 -14 -14 -14 -14 -14 -13 -13 -13 -13 -13 -13 -13 -13 -13 -13 -13 -13 -13 -13 -13 -13
-10 -11 -11 -11 -11 -11 -11 -11 -11 -12 -13 -13 -13 -13 -13 -13 -13 -13 -13 -13 -13 -14 -14 -13 -13 -13 -13 -13 -13 -13 -13 -13 -14 -14 -14 -14 -14 -14 -14 -14 -13 -13 -13
-10 -10 -11 -11 -11 -11 -12 -12 -12 -12 -13 -13 -13 -13 -13 -13 -13 -13 -13 -13 -14 -14 -14 -14 -14 -13 -13 -13 -13 -13 -13 -13 -13 -14 -13 -14 -14 -14 -14 -14 -14 -13 -13
-11 -11 -11 -11 -11 -12 -12 -12 -12 -13 -13 -13 -13 -13 -13 -13 -13 -14 -14 -14 -14 -13 -13 -13 -13 -13 -13 -13 -13 -13 -13 -13 -13 -13 -14 -14 -14 -14 -14 -14 -14 -14 -14
-11 -11 -11 -11 -12 -12 -12 -12 -13 -13 -13 -13 -13 -13 -13 -13 -13 -13 -13 -13 -13 -14 -14 -14 -13 -13 -13 -14 -14 -14 -14 -13 -14 -14 -13 -13 -14 -14 -14 -13 -14 -15 -14
-12 -12 -12 -12 -12 -12 -12 -13 -13 -13 -13 -13 -13 -13 -13 -13 -13 -13 -13 -13 -13 -13 -13 -13 -14 -14 -14 -14 -14 -14 -14 -14 -14 -13 -14 -14 -15 -15 -15 -15 -15 -15 -15
-12 -12 -12 -12 -12 -13 -13 -13 -13 -13 -13 -13 -13 -13 -13 -14 -14 -13 -13 -13 -13 -13 -13 -13 -13 -13 -13 -13 -14 -14 -14 -14 -14 -14 -14 -15 -15 -15 -15 -15 -16 -16 -16
-13 -12 -12 -12 -13 -13 -13 -13 -13 -13 -13 -13 -13 -14 -14 -13 -13 -13 -13 -13 -13 -13 -13 -13 -13 -13 -13 -13 -14 -14 -14 -14 -14 -14 -14 -15 -15 -16 -16 -16 -16 -17 -17
-13 -13 -13 -13 -13 -13 -14 -14 -13 -13 -13 -13 -14 -14 -13 -13 -13 -13 -13 -13 -13 -13 -13 -13 -13 -13 -14 -14 -13 -13 -13 -14 -14 -14 -15 -15 -16 -16 -16 -16 -17 -17 -17
-13 -13 -13 -13 -13 -13 -14 -14 -14 -14 -14 -14 -14 -14 -14 -13 -13 -13 -13 -13 -13 -13 -13 -13 -13 -13 -13 -13 -13 -13 -14 -14 -14 -14 -15 -16 -16 -16 -16 -17 -17 -17 -17
-13 -13 -14 -14 -13 -14 -14 -14 -14 -14 -14 -14 -14 -14 -14 -14 -14 -14 -14 -14 -13 -13 -13 -13 -13 -13 -13 -14 -14 -14 -14 -14 -14 -15 -16 -16 -16 -16 -17 -17 -17 -17 -18
-14 -14 -14 -14 -14 -15 -15 -15 -15 -14 -14 -14 -14 -14 -14 -14 -14 -14 -14 -13 -13 -13 -14 -13 -13 -13 -14 -14 -14 -14 -14 -14 -15 -15 -15 -16 -16 -17 -17 -17 -18 -18 -18
-14 -14 -15 -14 -15 -15 -15 -15 -15 -15 -15 -14 -14 -14 -14 -14 -14 -13 -13 -13 -13 -14 -14 -13 -13 -14 -13 -14 -14 -14 -15 -15 -15 -15 -16 -16 -17 -17 -18 -18 -18 -19 -19
-15 -15 -15 -15 -15 -15 -15 -15 -15 -15 -15 -15 -14 -14 -14 -13 -13 -13 -13 -13 -13 -14 -14 -13 -14 -14 -14 -14 -14 -14 -15 -15 -15 -16 -17 -17 -18 -18 -18 -19 -19 -19 -20
-14 -15 -15 -15 -15 -15 -15 -15 -15 -15 -14 -14 -14 -14 -14 -14 -14 -13 -14 -14 -14 -14 -13 -14 -14 -14 -14 -14 -14 -15 -15 -15 -16 -17 -17 -18 -18 -18 -18 -19 -20 -20 -20
-14 -14 -15 -15 -15 -15 -15 -15 -14 -14 -15 -14 -14 -14 -14 -14 -14 -14 -14 -14 -14 -14 -14 -14 -14 -15 -15 -15 -15 -15 -16 -16 -17 -17 -18 -18 -19 -19 -19 -20 -20 -21 -21
-14 -15 -15 -15 -15 -15 -14 -15 -14 -14 -14 -14 -14 -14 -14 -14 -14 -14 -14 -14 -14 -14 -14 -14 -15 -15 -15 -15 -16 -16 -17 -17 -17 -18 -18 -18 -19 -19 -20 -20 -21 -21 -22
Height
5841 5872 5867 5866 5865 5865 5865 5866 5866 5867 5866 5864 5862 5860 5859 5857 5855 5854 5851 5849 5847 5845 5842 5839 5838 5836 5835 5834 5833 5831 5831 5831 5829 5829 5829 5828 5828 5828 5830 5832 5832 5831 5832
5856 5863 5865 5862 5860 5862 5861 5860 5859 5859 5858 5856 5854 5852 5849 5846 5844 5843 5841 5840 5838 5835 5831 5829 5828 5826 5825 5825 5825 5824 5823 5822 5820 5818 5817 5817 5817 5816 5817 5817 5817 5817 5818
5861 5860 5859 5857 5855 5855 5854 5854 5853 5851 5850 5849 5847 5844 5840 5836 5833 5832 5831 5830 5828 5826 5823 5820 5819 5817 5816 5815 5815 5815 5815 5815 5813 5811 5808 5808 5808 5808 5806 5806 5807 5807 5807
5858 5855 5853 5851 5849 5849 5848 5847 5846 5844 5842 5840 5837 5834 5831 5827 5824 5822 5820 5819 5817 5816 5815 5813 5812 5810 5808 5807 5806 5806 5806 5806 5806 5804 5804 5803 5803 5802 5800 5800 5799 5799 5798
5850 5847 5845 5843 5842 5841 5841 5839 5836 5835 5833 5831 5827 5824 5821 5818 5816 5814 5812 5811 5810 5808 5807 5805 5804 5803 5802 5801 5799 5799 5799 5799 5798 5797 5796 5795 5795 5794 5793 5793 5791 5790 5788
5838 5837 5836 5836 5835 5833 5831 5830 5828 5826 5823 5820 5817 5815 5812 5810 5808 5807 5805 5804 5802 5800 5799 5798 5797 5795 5794 5792 5791 5790 5790 5790 5788 5787 5786 5786 5785 5784 5782 5782 5781 5779 5778
5831 5831 5831 5829 5827 5826 5825 5822 5818 5816 5814 5811 5810 5807 5806 5803 5802 5801 5799 5797 5795 5793 5791 5790 5788 5787 5786 5784 5782 5781 5780 5779 5778 5778 5778 5776 5774 5772 5772 5771 5770 5770 5768
5824 5824 5823 5822 5820 5818 5816 5813 5811 5808 5806 5804 5802 5800 5798 5798 5797 5797 5795 5793 5791 5789 5787 5786 5785 5784 5783 5781 5779 5777 5775 5773 5773 5774 5772 5769 5767 5767 5765 5764 5762 5761 5759
5818 5816 5815 5813 5812 5811 5809 5806 5803 5800 5798 5795 5795 5794 5794 5794 5793 5791 5789 5787 5786 5784 5783 5782 5781 5779 5777 5776 5774 5773 5771 5768 5768 5766 5765 5763 5762 5761 5759 5758 5756 5755 5754
5813 5810 5808 5807 5806 5804 5801 5798 5795 5793 5792 5792 5791 5791 5790 5789 5788 5787 5785 5784 5782 5780 5779 5778 5776 5774 5772 5770 5769 5768 5766 5763 5762 5760 5759 5757 5755 5752 5749 5746 5744 5742 5741
5806 5804 5802 5801 5799 5797 5795 5793 5792 5790 5789 5788 5787 5787 5786 5785 5784 5783 5781 5779 5777 5775 5774 5772 5771 5770 5768 5766 5765 5763 5761 5759 5756 5754 5752 5750 5747 5743 5740 5737 5733 5731 5730
5801 5800 5798 5796 5794 5792 5790 5789 5787 5786 5785 5784 5784 5783 5782 5781 5780 5779 5778 5776 5774 5771 5770 5768 5766 5764 5762 5760 5758 5755 5753 5751 5749 5747 5743 5742 5738 5734 5730 5725 5721 5717 5714
5798 5795 5793 5791 5788 5786 5785 5784 5784 5783 5782 5781 5780 5779 5779 5778 5777 5776 5774 5772 5770 5768 5767 5764 5762 5759 5757 5754 5750 5748 5744 5741 5737 5734 5731 5727 5724 5720 5717 5714 5709 5704 5700
5791 5790 5787 5784 5782 5782 5781 5780 5779 5778 5777 5776 5775 5775 5775 5774 5772 5771 5769 5767 5766 5763 5761 5758 5756 5753 5749 5747 5743 5739 5735 5731 5728 5724 5720 5715 5710 5705 5700 5695 5691 5687 5686
5785 5783 5781 5779 5777 5776 5774 5773 5773 5772 5771 5771 5770 5769 5768 5768 5767 5765 5763 5761 5759 5757 5755 5752 5749 5746 5743 5739 5734 5730 5727 5722 5718 5711 5705 5700 5694 5689 5685 5678 5673 5669 5665
5778 5777 5775 5773 5771 5770 5769 5767 5766 5766 5765 5764 5764 5763 5763 5761 5760 5758 5757 5755 5753 5750 5748 5745 5742 5738 5734 5729 5723 5719 5714 5708 5702 5697 5691 5685 5680 5675 5669 5663 5657 5652 5647
5773 5771 5769 5766 5764 5763 5761 5760 5760 5759 5759 5759 5759 5758 5757 5755 5754 5752 5750 5748 5745 5742 5738 5736 5731 5726 5722 5717 5713 5707 5701 5695 5688 5683 5677 5670 5664 5658 5653 5648 5641 5636 5631
5766 5764 5762 5760 5757 5756 5755 5754 5754 5753 5754 5754 5754 5752 5751 5749 5747 5746 5743 5740 5737 5733 5730 5726 5721 5717 5712 5707 5701 5695 5689 5682 5675 5668 5661 5654 5648 5643 5638 5630 5625 5619 5615
5759 5757 5755 5752 5750 5749 5749 5749 5748 5748 5749 5749 5748 5746 5745 5743 5741 5738 5735 5732 5728 5724 5721 5718 5713 5708 5701 5695 5688 5681 5675 5668 5661 5653 5646 5640 5634 5627 5621 5615 5609 5603 5598
5751 5748 5747 5745 5744 5743 5742 5743 5743 5744 5743 5741 5740 5739 5738 5736 5733 5731 5728 5724 5721 5719 5714 5708 5702 5695 5688 5682 5675 5669 5661 5654 5646 5639 5632 5625 5617 5611 5604 5599 5594 5589 5582
5742 5740 5738 5738 5737 5737 5737 5738 5737 5737 5736 5735 5734 5733 5731 5729 5726 5723 5720 5717 5713 5708 5703 5696 5690 5684 5676 5669 5662 5655 5648 5639 5631 5624 5617 5610 5602 5596 5590 5584 5578 5572 5567
5735 5733 5733 5732 5732 5732 5732 5731 5731 5730 5728 5727 5726 5725 5723 5722 5719 5716 5712 5707 5702 5697 5692 5686 5679 5672 5665 5658 5650 5642 5634 5625 5617 5609 5601 5594 5588 5581 5574 5568 5561 5556 5551
5729 5728 5727 5726 5726 5726 5725 5725 5725 5724 5723 5722 5721 5720 5718 5715 5712 5707 5702 5697 5692 5686 5680 5674 5668 5660 5652 5643 5636 5628 5620 5611 5603 5595 5587 5580 5573 5566 5558 5552 5546 5540 5535
5723 5722 5721 5721 5722 5722 5721 5722 5721 5720 5718 5716 5715 5713 5710 5708 5703 5698 5692 5687 5680 5674 5669 5663 5655 5647 5638 5630 5622 5613 5606 5598 5590 5581 5573 5565 5558 5550 5544 5537 5531 5525 5521
5717 5716 5716 5717 5717 5716 5716 5714 5714 5712 5710 5709 5708 5705 5702 5698 5693 5688 5682 5675 5669 5663 5656 5649 5640 5631 5623 5615 5607 5599 5592 5583 5574 5567 5559 5551 5543 5536 5529 5523 5517 5511 5506
5712 5711 5711 5711 5711 5710 5709 5707 5706 5705 5704 5701 5698 5695 5691 5688 5683 5676 5670 5663 5657 5649 5642 5634 5624 5615 5609 5602 5595 5587 5578 5569 5560 5552 5544 5537 5529 5522 5516 5509 5504 5499 5493
Wind_Speed
32 23 28 31 31 30 32 31 30 30 31 32 32 33 34 32 31 31 33 37 39 44 45 48 44 41 40 37 31 33 34 29 39 41 35 35 35 41 43 48 47 44 46
25 27 29 29 31 33 32 30 30 32 33 32 32 35 38 39 37 35 33 32 37 42 42 40 39 37 37 38 32 36 32 33 36 42 40 39 40 41 41 42 43 40 43
30 29 32 30 32 29 28 30 30 31 31 30 31 33 37 40 39 38 37 36 37 37 38 35 34 34 33 33 34 35 36 37 42 39 41 40 42 44 43 42 39 42 45
37 36 37 34 30 29 28 30 29 28 29 32 34 36 35 34 35 37 35 34 32 31 31 30 30 30 29 28 28 28 28 30 33 35 40 43 45 48 48 46 47 46 49
38 31 33 31 28 28 30 29 29 31 33 35 34 33 33 32 31 28 28 29 28 26 26 27 26 26 26 25 25 26 26 26 28 30 31 32 34 36 36 36 38 42 45
38 27 26 27 27 28 28 30 32 33 32 32 31 29 27 26 23 23 23 24 27 27 26 26 28 30 30 29 31 31 31 31 32 31 31 31 33 34 35 37 38 40 42
24 24 23 23 25 26 29 30 29 31 32 30 28 26 24 22 21 20 20 22 23 23 23 23 23 24 23 23 24 25 28 29 30 31 30 30 30 33 34 34 33 34 34
20 20 22 22 22 25 28 30 31 32 30 26 23 21 19 18 18 21 21 19 17 14 14 13 14 15 16 17 19 20 21 22 23 24 26 27 29 31 32 32 33 34 34
19 17 17 18 23 26 29 30 29 27 23 20 18 18 16 18 19 19 17 17 17 17 17 16 16 17 18 16 17 19 21 22 21 22 21 22 24 26 29 30 32 33 33
15 15 16 20 25 26 25 22 22 23 17 15 16 16 17 17 17 17 17 17 18 17 16 16 16 18 20 20 20 21 22 25 27 29 31 31 31 31 32 34 34 33 30
15 17 20 23 23 22 17 17 17 17 18 17 17 18 17 18 17 16 18 19 19 18 17 17 17 17 20 22 24 26 27 30 31 32 33 34 35 36 35 37 42 45 44
19 22 22 21 20 17 14 15 15 16 16 16 17 17 17 17 17 18 19 16 13 12 14 16 19 20 22 25 28 30 31 33 34 34 34 41 42 41 43 44 48 50 54
20 20 20 19 17 17 17 17 17 17 16 17 16 16 16 15 15 13 10 11 14 16 18 20 24 27 31 33 35 36 39 41 41 40 42 44 40 42 46 52 53 55 53
18 18 19 17 16 18 20 19 17 16 15 15 17 17 15 14 14 14 16 17 17 18 20 23 26 29 30 35 39 42 44 46 43 49 52 53 49 47 52 58 63 57 57
17 17 17 16 17 16 15 15 16 15 17 17 16 15 15 15 16 17 18 19 22 24 26 27 29 32 33 38 37 38 42 40 52 49 52 55 57 56 59 57 57 59 56
17 17 18 17 16 17 17 15 16 18 19 17 15 15 15 17 19 21 22 23 25 27 30 33 36 37 37 40 42 44 45 49 51 53 52 52 53 56 54 52 52 53 52
19 20 19 19 20 18 19 19 18 17 15 15 15 15 17 20 21 22 25 28 31 32 30 35 38 40 45 44 44 46 48 52 53 53 56 54 50 47 49 51 51 50 49
21 21 20 21 21 22 22 22 19 15 15 15 16 17 19 21 24 26 28 30 30 31 34 40 41 45 44 46 44 45 49 49 50 54 51 50 50 52 53 51 48 47 46
24 22 21 22 22 23 24 22 19 17 15 16 18 20 23 25 25 26 25 33 35 37 38 41 41 43 46 44 44 47 48 50 52 53 51 51 52 52 51 50 47 46 47
25 25 23 22 24 23 22 20 19 18 18 19 21 23 22 22 27 31 34 36 35 35 37 38 41 43 43 43 45 47 48 50 51 52 51 52 52 51 50 49 48 48 49
26 27 25 23 23 22 19 18 21 22 21 22 23 24 28 30 30 31 33 34 35 37 38 40 43 44 44 46 47 48 49 50 52 53 54 52 51 50 50 48 47 47 46
26 24 23 22 21 18 19 20 20 21 21 23 23 22 20 25 29 30 33 34 37 39 40 41 45 48 49 48 49 50 51 52 53 54 54 52 50 49 48 47 46 46 46
26 23 23 21 18 19 19 21 22 23 23 27 29 30 28 30 32 33 35 38 39 42 41 44 47 50 51 51 52 54 55 55 54 54 53 51 50 49 48 46 46 46 46
23 22 19 19 18 18 19 21 24 18 26 25 26 27 29 33 35 36 38 40 39 41 44 48 50 51 51 53 54 56 56 55 54 54 52 50 49 48 47 45 45 45 44
22 18 17 18 17 20 22 22 25 19 20 25 28 28 30 31 37 40 40 41 42 45 48 52 53 52 53 56 58 58 57 55 54 53 52 51 49 47 46 44 43 42 42
19 18 16 17 19 22 20 23 25 26 24 26 29 31 33 37 43 42 40 41 44 47 50 53 55 57 57 60 60 58 56 55 54 53 51 49 48 46 45 43 41 41 41
Wind_Direction
250 266 261 299 300 294 295 295 296 294 295 295 297 294 292 289 285 280 271 269 267 270 271 272 280 285 284 274 266 270 265 249 254 254 259 256 255 259 265 266 258 262 266
293 286 288 292 291 290 289 290 291 293 294 292 291 292 291 288 286 283 276 271 269 272 281 284 285 285 286 278 274 271 262 254 257 253 254 258 260 257 252 253 257 261 268
282 284 284 285 285 282 284 288 292 291 287 286 285 292 294 286 282 280 284 275 272 277 282 291 284 281 281 282 282 278 274 273 275 277 279 272 279 280 277 258 260 271 279
276 272 276 278 279 284 287 289 288 284 284 287 288 288 286 286 283 284 283 281 281 280 281 282 279 278 277 277 277 278 278 274 274 273 271 273 276 281 285 288 284 282 284
270 269 277 279 284 285 286 287 288 289 288 289 288 288 286 284 283 285 285 282 282 286 284 281 279 277 281 284 284 285 285 283 281 278 275 275 277 279 282 282 284 285 285
261 269 279 283 285 288 288 288 288 290 291 290 293 295 295 294 293 289 288 290 288 285 282 280 279 281 282 282 282 282 281 279 279 278 276 277 278 279 278 279 280 282 282
273 281 281 284 286 288 288 289 292 291 290 292 290 292 290 290 291 294 296 302 298 294 290 287 286 288 288 289 289 287 284 283 281 280 279 279 279 280 281 282 281 280 282
269 277 282 286 291 294 293 292 291 291 293 293 289 288 288 289 291 291 295 303 311 315 312 314 313 307 304 301 300 299 297 293 291 294 295 292 291 289 288 287 287 288 288
269 272 282 293 297 297 297 296 295 293 294 295 289 288 284 287 288 295 303 305 306 308 310 310 304 303 302 299 301 302 301 298 300 298 296 296 298 297 295 294 295 296 295
269 278 290 302 302 301 304 307 305 299 293 281 282 284 292 291 292 298 300 297 300 303 299 297 299 299 299 302 301 299 298 299 302 302 302 301 297 292 290 288 288 282 278
280 288 300 301 298 296 299 299 303 296 295 292 291 294 295 296 295 293 296 301 303 306 308 310 311 312 311 308 305 301 298 297 299 299 299 297 294 291 291 295 295 290 286
291 289 290 291 289 285 278 293 296 296 291 284 287 291 291 290 293 297 301 304 307 308 309 306 305 302 300 301 300 300 299 298 296 295 296 303 289 284 283 288 297 295 286
277 280 282 283 278 270 270 281 286 287 286 279 277 280 285 290 294 296 293 290 288 290 295 299 302 306 308 309 308 306 303 301 299 299 307 304 301 294 290 283 289 293 279
284 281 280 282 272 267 268 276 277 280 281 275 275 278 286 287 288 291 291 297 301 304 301 298 301 300 300 304 306 301 297 296 297 303 303 297 289 297 300 295 290 290 284
285 281 283 279 274 271 270 275 279 280 282 281 280 273 277 286 299 302 301 299 300 302 304 298 303 302 293 302 307 309 302 296 303 299 297 299 283 290 297 292 290 289 287
282 283 287 282 273 270 271 272 277 278 277 277 279 282 287 294 294 296 296 298 300 303 299 298 291 299 304 306 308 304 303 301 300 302 302 299 292 292 295 295 295 293 290
281 285 290 289 279 274 273 277 282 277 275 273 275 282 287 291 294 296 300 300 298 297 298 307 307 310 312 308 306 307 309 309 310 309 306 304 302 301 300 299 295 292 290
285 288 293 293 282 275 269 275 275 271 273 276 280 281 288 295 299 295 294 301 307 307 303 305 307 308 306 307 310 313 314 313 311 310 309 307 305 303 302 298 298 297 295
287 287 286 289 281 272 269 269 267 268 275 280 281 286 297 298 294 300 308 310 307 309 308 306 305 308 311 313 315 318 318 315 313 312 311 308 306 304 301 300 300 299 298
290 291 288 287 283 272 267 266 266 263 267 269 273 277 290 306 308 287 294 301 302 304 308 313 314 314 314 315 318 318 317 316 315 312 309 307 305 303 302 301 298 297 297
292 289 287 287 283 272 269 263 256 258 268 280 280 286 283 285 298 296 294 296 301 310 316 315 315 317 318 318 318 317 318 318 316 313 310 308 305 305 304 300 297 296 296
293 287 283 284 283 276 262 255 259 265 269 273 273 273 291 289 289 291 296 301 308 311 311 314 317 318 317 317 319 320 319 318 317 315 311 308 306 306 304 302 299 298 297
288 280 282 279 277 265 260 264 271 275 274 274 266 281 281 295 295 298 306 311 309 310 312 314 314 316 317 319 320 320 319 319 318 315 312 308 307 307 306 303 300 300 300
302 280 275 283 279 274 276 276 274 280 281 276 286 288 292 298 298 305 311 309 309 311 312 314 317 320 320 320 320 319 317 318 316 315 313 310 309 309 308 306 304 303 301
294 290 280 282 282 275 272 274 272 292 286 282 282 291 297 305 312 310 310 310 310 312 314 315 318 321 321 321 321 319 315 315 316 316 315 312 311 310 308 308 305 304 303
291 283 281 277 273 270 282 281 285 281 283 286 291 299 305 302 305 309 312 312 312 313 314 316 320 322 323 322 319 313 313 315 316 316 315 313 312 311 310 309 307 307 306